Balikesir, Turkey

8:09 PM +03 on December 15, 2017 (GMT +0300)
Balikesir Air Base

Weather History for LTBF - November, 2013

Change the Weather History Date:

Monday, November 4, 2013

  Actual Average Record
Temperature  
Mean Temperature 58 °F -  
Max Temperature 74 °F 60 °F 74 °F (2013)
Min Temperature 43 °F 42 °F 29 °F (2014)
Degree Days  
Heating Degree Days 6    
Growing Degree Days 8 (Base 50)    
Moisture  
Dew Point 47 °F    
Average Humidity 80    
Maximum Humidity 100    
Minimum Humidity 41    
Precipitation  
Precipitation 0.00 in 0.11 in - ()
Sea Level Pressure  
Sea Level Pressure 30.07 in    
Wind  
Wind Speed 1 mph ()    
Max Wind Speed 8 mph    
Max Gust Speed -    
Visibility 1.7 miles    
Events Fog    
Averages and records for this station are not official NWS values.
T = Trace of Precipitation, MM = Missing Value Source: Averaged Metar Reports

Daily Weather History Graph

Daily Weather History Graph

Search for Another Location

Airport or City:

Trip Planner

Search our weather history database for the weather conditions in past years. The results will help you decide how hot, cold, wet, or windy it might be!

Date:

Astronomy

Nov. 04, 2013 Rise Set
Actual Time 6:40 AM EET 5:03 PM EET
Civil Twilight 6:11 AM EET 5:31 PM EET
Nautical Twilight 5:39 AM EET 6:03 PM EET
Astronomical Twilight 5:08 AM EET 6:34 PM EET
Moon 7:28 AM EET (11/4) 5:51 PM EET (11/4)
Length of Visible Light 11h 19m
Length of Day
10h 23m
New Moon, 1% of the Moon is Illuminated
Nov 4
New Moon
Nov 10
First Quarter
Nov 17
Full
Nov 25
Last Quarter
Dec 3
New

Hourly Weather History & Observations

Time (EET) Temp. Dew Point Humidity Pressure Visibility Wind Dir Wind Speed Gust Speed Precip Events Conditions
12:50 AM 44.6 °F 42.8 °F 93% 30.09 in 0.3 mi Calm Calm - N/A Fog Fog
1:50 AM 44.6 °F 42.8 °F 93% 30.09 in 0.3 mi Calm Calm - N/A Fog Fog
2:00 AM 44 °F 42 °F 92% 30.11 in 0 mi Calm Calm - - Fog Partial Fog
2:50 AM 44.6 °F 42.8 °F 93% 30.09 in 0.3 mi Calm Calm - N/A Fog Fog
3:50 AM 46.4 °F 44.6 °F 93% 30.09 in 0.3 mi Calm Calm - N/A Fog Fog
4:50 AM 46.4 °F 44.6 °F 93% 30.09 in 0.3 mi Calm Calm - N/A Fog Fog
5:50 AM 44.6 °F 44.6 °F 100% 30.09 in 0.3 mi Calm Calm - N/A Fog Fog
6:50 AM 44.6 °F 42.8 °F 93% 30.09 in 0.3 mi Calm Calm - N/A Fog Fog
7:50 AM 44.6 °F 44.6 °F 100% 30.12 in 0.3 mi Calm Calm - N/A Fog Fog
8:00 AM 45 °F 44 °F 94% 30.14 in 0 mi Calm Calm - - Fog Partial Fog
8:50 AM 48.2 °F 46.4 °F 93% 30.15 in 0.1 mi Calm Calm - N/A Fog Fog
9:50 AM 48.2 °F 46.4 °F 93% 30.12 in 0.2 mi Calm Calm - N/A Fog Fog
10:37 AM 50.0 °F 48.2 °F 94% 30.12 in 0.7 mi Calm Calm - N/A   Mostly Cloudy
10:50 AM 51.8 °F 50.0 °F 94% 30.12 in 1.6 mi Calm Calm - N/A   Scattered Clouds
11:50 AM 59.0 °F 55.4 °F 88% 30.09 in 3.1 mi Calm Calm - N/A   Partly Cloudy
12:50 PM 66.2 °F 53.6 °F 64% 30.06 in 5.0 mi Calm Calm - N/A   Unknown
1:50 PM 69.8 °F 53.6 °F 56% 30.04 in 5.0 mi Calm Calm - N/A   Unknown
2:00 PM 70 °F 53 °F 44% 30.05 in 5 mi Calm Calm - -   Haze
2:50 PM 73.4 °F 50.0 °F 44% 30.01 in 5.0 mi Calm Calm - N/A   Unknown
3:50 PM 73.4 °F 48.2 °F 41% 30.01 in - WSW 6.9 mph - N/A   Clear
4:50 PM 68.0 °F 48.2 °F 49% 30.01 in - WSW 8.1 mph - N/A   Clear
5:50 PM 64.4 °F 50.0 °F 59% 30.01 in - WSW 4.6 mph - N/A   Clear
6:50 PM 60.8 °F 50.0 °F 68% 30.01 in - SSE 3.5 mph - N/A   Clear
7:50 PM 57.2 °F 48.2 °F 72% 30.04 in - Calm Calm - N/A   Clear
8:00 PM 57 °F 48 °F 65% 30.04 in 6 mi Calm Calm - -  
8:50 PM 53.6 °F 48.2 °F 82% 30.04 in - Variable 1.2 mph - N/A   Clear
9:50 PM 53.6 °F 48.2 °F 82% 30.04 in - Calm Calm - N/A   Clear
10:50 PM 50.0 °F 46.4 °F 87% 30.04 in - Calm Calm - N/A   Clear
11:50 PM 46.4 °F 44.6 °F 93% 30.04 in - Variable 2.3 mph - N/A   Clear